Location: Newark
(47.5347°N, 5.5339°E)
Time: 00:20:28
(UTC+00:00)

ISS - Pass Details

Date: 28 September 2019
Orbit: 411 x 421 km, 51.6° (Epoch: 19 October)

Event Time Altitude Azimuth Distance (km) Brightness Sun altitude
Rises 19:18:56 0° 285° (WNW) 2,346 1.7 -19.9°
Reaches altitude 10° 19:21:06 10° 294° (WNW) 1,483 0.2 -20.2°
Maximum altitude 19:24:16 40° 5° (N) 626 -2.8 -20.7°
Enters shadow 19:24:20 40° 8° (N) 627 -2.9 -20.7°
